Weather History for Charlottetown, PE

Change the Weather History Date:

Sunday, October 7, 2012

  Actual Average Record
Temperature  
Mean Temperature 55 °F -  
Max Temperature 62 °F 51 °F 71 °F (2005)
Min Temperature 48 °F 37 °F 32 °F (2013)
Degree Days  
Heating Degree Days 10    
Growing Degree Days 5 (Base 50)    
Moisture  
Dew Point 50 °F    
Average Humidity 82    
Maximum Humidity 100    
Minimum Humidity 54    
Precipitation  
Precipitation 0.04 in 0.15 in - ()
Sea Level Pressure  
Sea Level Pressure 29.90 in    
Wind  
Wind Speed 11 mph ()    
Max Wind Speed 24 mph    
Max Gust Speed 30 mph    
Visibility 14.3 miles    
Events Rain    
Averages and records for this station are not official NWS values.
T = Trace of Precipitation, MM = Missing Value Source: Averaged Metar Reports

Daily Weather History Graph

Daily Weather History Graph

Search for Another Location

Airport:

Trip Planner

Search our weather history database for the weather conditions in past years. The results will help you decide how hot, cold, wet, or windy it might be!

Date:

Astronomy

Oct. 07, 2012 Rise Set
Actual Time 7:19 AM ADT 6:40 PM ADT
Civil Twilight 6:49 AM ADT 7:10 PM ADT
Nautical Twilight 6:14 AM ADT 7:44 PM ADT
Astronomical Twilight 5:39 AM ADT 8:19 PM ADT
Moon 11:34 PM ADT (10/7) 2:07 PM ADT (10/7)
Length of Visible Light 12h 20m
Length of Day
11h 20m
Waning Gibbous, 57% of the Moon is Illuminated
Oct 7
Waning Gibbous
Oct 8
Last Quarter
Oct 15
New
Oct 22
First Quarter
Oct 29
Full

Hourly Weather History & Observations

Time (ADT) Temp. Dew Point Humidity Pressure Visibility Wind Dir Wind Speed Gust Speed Precip Events Conditions
12:00 AM 60.8 °F 55.4 °F 82% 29.77 in 15.0 mi South 18.4 mph 27.6 mph N/A   Mostly Cloudy
1:00 AM 60.8 °F 57.2 °F 88% 29.75 in 15.0 mi South 19.6 mph 27.6 mph N/A   Mostly Cloudy
2:00 AM 60.8 °F 57.2 °F 88% 29.74 in 15.0 mi South 18.4 mph 29.9 mph N/A   Mostly Cloudy
3:00 AM 62 °F 58 °F 83% 29.72 in 15 mi South 24.2 mph - -   Mostly Cloudy
4:00 AM 62.6 °F 57.2 °F 82% 29.71 in 15.0 mi South 20.7 mph 29.9 mph N/A   Overcast
4:39 AM 59.0 °F 55.4 °F 88% 29.75 in 10.0 mi West 15.0 mph 23.0 mph N/A Rain Light Rain Showers
5:00 AM 57.2 °F 55.4 °F 94% 29.76 in 15.0 mi West 9.2 mph - N/A Rain Light Rain Showers
5:35 AM 55.4 °F 55.4 °F 100% 29.78 in 10.0 mi West 10.4 mph 18.4 mph N/A Rain Light Rain Showers
6:00 AM 55.4 °F 53.6 °F 94% 29.79 in 5.0 mi West 6.9 mph - N/A Rain Light Rain Showers
6:42 AM 53.6 °F 51.8 °F 94% 29.82 in 15.0 mi West 10.4 mph 17.3 mph N/A   Mostly Cloudy
7:00 AM 53.6 °F 51.8 °F 94% 29.83 in 15.0 mi West 9.2 mph 17.3 mph N/A   Mostly Cloudy
8:00 AM 51.8 °F 50.0 °F 94% 29.87 in 15.0 mi West 10.4 mph 19.6 mph N/A   Mostly Cloudy
9:00 AM 53 °F 49 °F 80% 29.90 in 15 mi WNW 10.4 mph - -   Partly Cloudy
9:00 AM 53.6 °F 48.2 °F 82% 29.90 in 15.0 mi West 9.2 mph - N/A   Scattered Clouds
10:00 AM 53.6 °F 48.2 °F 82% 29.93 in 15.0 mi West 11.5 mph 18.4 mph N/A   Scattered Clouds
11:00 AM 55.4 °F 46.4 °F 72% 29.95 in 15.0 mi West 9.2 mph - N/A   Mostly Cloudy
12:00 PM 55.4 °F 46.4 °F 72% 29.97 in 15.0 mi WSW 11.5 mph 18.4 mph N/A   Mostly Cloudy
1:00 PM 55.4 °F 46.4 °F 72% 29.99 in 15.0 mi West 9.2 mph - N/A   Mostly Cloudy
2:00 PM 57.2 °F 46.4 °F 67% 29.99 in 15.0 mi West 6.9 mph - N/A   Mostly Cloudy
3:00 PM 58 °F 46 °F 54% 29.99 in 15 mi NW 5.8 mph - -   Partly Cloudy
3:00 PM 57.2 °F 46.4 °F 67% 29.99 in 15.0 mi NW 6.9 mph - N/A   Mostly Cloudy
4:00 PM 57.2 °F 44.6 °F 63% 30.00 in 15.0 mi WNW 5.8 mph - N/A   Mostly Cloudy
5:00 PM 55.4 °F 44.6 °F 67% 30.00 in 15.0 mi WNW 4.6 mph - N/A   Mostly Cloudy
6:00 PM 53.6 °F 44.6 °F 72% 30.01 in 15.0 mi North 3.5 mph - N/A   Mostly Cloudy
7:00 PM 51.8 °F 48.2 °F 88% 30.03 in 15.0 mi Calm Calm - N/A   Overcast
9:00 PM 48 °F 47 °F 94% 30.08 in 15 mi Calm Calm - -   Overcast
9:00 PM 48.2 °F 46.4 °F 93% 30.08 in 15.0 mi Calm Calm - N/A   Overcast
10:00 PM 48.2 °F 46.4 °F 93% 30.07 in 15.0 mi ESE 2.3 mph - N/A   Overcast